Hazlehurst, GA

7:32 AM EDT on October 16, 2019 (GMT -0400)
Hazlehurst

Weather History for KAZE - August, 2019

Change the Weather History Date:

Thursday, August 8, 2019

  Actual Average Record
Temperature  
Mean Temperature 88 °F -  
Max Temperature 99 °F 94 °F 99 °F (2019)
Min Temperature 77 °F 72 °F 71 °F (2013)
Cooling Degree Days 23    
Growing Degree Days 38 (Base 50)    
Moisture  
Dew Point 70 °F    
Average Humidity 61    
Maximum Humidity 83    
Minimum Humidity 31    
Precipitation  
Precipitation 0.00 in - - ()
Sea Level Pressure  
Sea Level Pressure 29.92 in    
Wind  
Wind Speed 4 mph (WSW)    
Max Wind Speed 10 mph    
Max Gust Speed -    
Visibility 10 miles    
Events      
Averages and records for this station are not official NWS values.
T = Trace of Precipitation, MM = Missing Value Source: NWS Daily Summary

Daily Weather History Graph

Daily Weather History Graph

Search for Another Location

Airport or City:

Astronomy

Aug. 08, 2019 Rise Set
Actual Time 6:50 AM EDT 8:21 PM EDT
Civil Twilight 6:24 AM EDT 8:47 PM EDT
Nautical Twilight 5:53 AM EDT 9:18 PM EDT
Astronomical Twilight 5:20 AM EDT 9:51 PM EDT
Moon 2:55 PM EDT (8/8) 1:09 AM EDT (8/8)
Length of Visible Light 14h 23m
Length of Day
13h 30m
First Quarter, 60% of the Moon is Illuminated
Aug 8
First Quarter
Aug 15
Full
Aug 23
Last Quarter
Aug 30
New
Sep 5
First Quarter

Hourly Weather History & Observations

Time (EDT) Temp. Heat Index Dew Point Humidity Pressure Visibility Wind Dir Wind Speed Gust Speed Precip Events Conditions
12:10 AM 81.9 °F 85.6 °F 69.8 °F 67% 29.91 in 10.0 mi SSW 8.1 mph - N/A   Clear
12:30 AM 81.5 °F 84.9 °F 69.8 °F 67% 29.91 in 10.0 mi SW 6.9 mph - N/A   Clear
12:50 AM 81.1 °F 84.7 °F 70.2 °F 69% 29.91 in 10.0 mi SSW 6.9 mph - N/A   Clear
1:10 AM 81.5 °F 85.3 °F 70.5 °F 69% 29.90 in 10.0 mi Calm Calm - N/A   Clear
1:30 AM 81.0 °F 84.7 °F 70.7 °F 71% 29.90 in 10.0 mi SW 3.5 mph - N/A   Clear
1:50 AM 80.6 °F 84.4 °F 71.1 °F 73% 29.90 in 10.0 mi Calm Calm - N/A   Clear
2:10 AM 79.9 °F - 71.6 °F 76% 29.91 in 10.0 mi Calm Calm - N/A   Clear
2:30 AM 79.9 °F - 71.2 °F 75% 29.91 in 10.0 mi Calm Calm - N/A   Clear
2:50 AM 80.1 °F 83.8 °F 71.8 °F 76% 29.91 in 10.0 mi SW 3.5 mph - N/A   Clear
3:10 AM 80.1 °F 84.0 °F 72.1 °F 77% 29.91 in 10.0 mi SSW 3.5 mph - N/A   Clear
3:30 AM 80.2 °F 84.2 °F 72.0 °F 76% 29.90 in 10.0 mi SSW 3.5 mph - N/A   Clear
3:50 AM 80.2 °F 84.3 °F 72.5 °F 77% 29.90 in 10.0 mi Calm Calm - N/A   Clear
4:10 AM 80.6 °F 84.7 °F 72.1 °F 75% 29.90 in 10.0 mi Calm Calm - N/A   Clear
4:30 AM 79.7 °F - 72.0 °F 77% 29.89 in 10.0 mi South 3.5 mph - N/A   Clear
4:50 AM 79.0 °F - 72.1 °F 79% 29.89 in 10.0 mi Calm Calm - N/A   Clear
5:10 AM 78.4 °F - 72.5 °F 82% 29.89 in 10.0 mi Calm Calm - N/A   Clear
5:30 AM 78.8 °F - 72.1 °F 80% 29.89 in 10.0 mi Calm Calm - N/A   Clear
5:50 AM 78.3 °F - 72.5 °F 82% 29.90 in 10.0 mi Calm Calm - N/A   Clear
6:10 AM 78.1 °F - 72.5 °F 83% 29.90 in 10.0 mi Calm Calm - N/A   Clear
6:30 AM 78.1 °F - 72.3 °F 82% 29.91 in 10.0 mi Calm Calm - N/A   Clear
6:50 AM 78.1 °F - 72.3 °F 82% 29.91 in 10.0 mi Calm Calm - N/A   Clear
7:10 AM 77.9 °F - 72.5 °F 83% 29.91 in 10.0 mi Calm Calm - N/A   Clear
7:30 AM 78.4 °F - 72.5 °F 82% 29.92 in 10.0 mi Calm Calm - N/A   Clear
7:50 AM 79.3 °F - 72.5 °F 79% 29.93 in 10.0 mi WSW 3.5 mph - N/A   Clear
8:10 AM 80.6 °F 84.9 °F 72.5 °F 76% 29.94 in 10.0 mi Calm Calm - N/A   Clear
8:30 AM 82.6 °F 87.8 °F 72.5 °F 71% 29.94 in 10.0 mi Calm Calm - N/A   Clear
8:50 AM 84.4 °F 90.3 °F 72.5 °F 67% 29.94 in 10.0 mi Calm Calm - N/A   Clear
9:10 AM 85.5 °F 91.8 °F 72.7 °F 65% 29.94 in 10.0 mi WNW 6.9 mph - N/A   Clear
9:30 AM 86.9 °F 93.7 °F 72.7 °F 62% 29.94 in 10.0 mi WNW 3.5 mph - N/A   Clear
9:50 AM 88.7 °F 96.2 °F 72.7 °F 59% 29.95 in 10.0 mi WNW 6.9 mph - N/A   Clear
10:10 AM 87.3 °F 94.5 °F 73.0 °F 62% 29.95 in 10.0 mi West 3.5 mph - N/A   Clear
10:30 AM 86.9 °F 94.1 °F 73.0 °F 63% 29.95 in 10.0 mi West 3.5 mph - N/A   Clear
10:50 AM 87.6 °F 95.2 °F 73.0 °F 62% 29.96 in 10.0 mi WSW 3.5 mph - N/A   Clear
11:10 AM 88.7 °F 96.2 °F 72.9 °F 59% 29.96 in 10.0 mi WSW 3.5 mph - N/A   Clear
11:30 AM 91.0 °F 99.3 °F 72.7 °F 55% 29.96 in 10.0 mi WNW 4.6 mph - N/A   Clear
11:50 AM 89.8 °F 97.5 °F 72.7 °F 57% 29.96 in 10.0 mi WNW 5.8 mph - N/A   Clear
12:10 PM 92.3 °F 100.9 °F 72.7 °F 53% 29.95 in 10.0 mi WSW 3.5 mph - N/A   Clear
12:30 PM 94.1 °F 102.5 °F 72.3 °F 49% 29.95 in 10.0 mi West 8.1 mph - N/A   Clear
12:50 PM 93.7 °F 101.1 °F 71.1 °F 48% 29.95 in 10.0 mi WNW 5.8 mph - N/A   Clear
1:10 PM 95.9 °F 101.3 °F 68.9 °F 41% 29.94 in 10.0 mi WSW 6.9 mph - N/A   Scattered Clouds
1:30 PM 96.4 °F 101.7 °F 68.5 °F 40% 29.93 in 10.0 mi West 4.6 mph - N/A   Scattered Clouds
1:50 PM 97.3 °F 102.3 °F 67.5 °F 38% 29.92 in 10.0 mi West 6.9 mph - N/A   Scattered Clouds
2:10 PM 97.3 °F 101.7 °F 66.7 °F 37% 29.92 in 10.0 mi West 5.8 mph - N/A   Scattered Clouds
2:30 PM 98.2 °F 102.1 °F 66.6 °F 35% 29.91 in 10.0 mi WSW 6.9 mph - N/A   Scattered Clouds
2:50 PM 98.2 °F 101.0 °F 64.8 °F 33% 29.90 in 10.0 mi Calm Calm - N/A   Scattered Clouds
3:10 PM 97.2 °F 100.2 °F 65.1 °F 35% 29.90 in 10.0 mi West 3.5 mph - N/A   Scattered Clouds
3:30 PM 96.6 °F 99.8 °F 65.7 °F 36% 29.89 in 10.0 mi West 9.2 mph - N/A   Scattered Clouds
3:55 PM 98.4 °F 101.3 °F 64.9 °F 33% 29.88 in 10.0 mi West 6.9 mph - N/A   Scattered Clouds
4:10 PM 97.9 °F 101.5 °F 66.0 °F 35% 29.88 in 10.0 mi Calm Calm - N/A   Scattered Clouds
4:30 PM 97.2 °F 99.1 °F 64.0 °F 33% 29.87 in 10.0 mi SW 6.9 mph - N/A   Scattered Clouds
4:50 PM 99.1 °F 101.4 °F 63.7 °F 31% 29.87 in 10.0 mi NW 5.8 mph - N/A   Scattered Clouds
5:10 PM 95.9 °F 99.0 °F 66.0 °F 37% 29.88 in 10.0 mi North 10.4 mph - N/A   Scattered Clouds
5:30 PM 91.4 °F 94.5 °F 66.6 °F 44% 29.88 in 10.0 mi NNE 8.1 mph - N/A   Scattered Clouds
5:50 PM 94.1 °F 96.9 °F 65.7 °F 39% 29.88 in 10.0 mi Calm Calm - N/A   Clear
6:10 PM 95.4 °F 98.1 °F 65.5 °F 37% 29.87 in 10.0 mi WNW 3.5 mph - N/A   Clear
6:30 PM 96.3 °F 100.8 °F 67.3 °F 39% 29.88 in 10.0 mi Calm Calm - N/A   Clear
6:50 PM 95.2 °F 100.5 °F 68.5 °F 42% 29.88 in 10.0 mi WNW 3.5 mph - N/A   Clear
7:30 PM 92.7 °F 97.2 °F 68.7 °F 45% 29.89 in 10.0 mi Calm Calm - N/A   Clear
7:50 PM 91.0 °F 96.6 °F 70.0 °F 50% 29.91 in 10.0 mi Calm Calm - N/A   Clear
8:10 PM 89.8 °F 95.6 °F 70.7 °F 53% 29.91 in 10.0 mi WSW 5.8 mph - N/A   Clear
8:30 PM 88.0 °F 93.4 °F 70.7 °F 56% 29.92 in 10.0 mi SW 6.9 mph - N/A   Clear
8:50 PM 86.9 °F 90.3 °F 68.0 °F 53% 29.93 in 10.0 mi SSW 9.2 mph - N/A   Clear
9:10 PM 86.0 °F 88.8 °F 67.3 °F 53% 29.93 in 10.0 mi SSW 6.9 mph - N/A   Clear
9:30 PM 83.5 °F 87.7 °F 70.3 °F 64% 29.94 in 10.0 mi SW 8.1 mph - N/A   Clear
9:50 PM 82.6 °F 86.6 °F 70.2 °F 66% 29.94 in 10.0 mi SW 6.9 mph - N/A   Scattered Clouds
10:10 PM 81.9 °F 85.8 °F 70.2 °F 68% 29.94 in 10.0 mi SW 3.5 mph - N/A   Scattered Clouds
10:30 PM 81.0 °F 84.7 °F 70.7 °F 71% 29.94 in 10.0 mi SSW 3.5 mph - N/A   Clear
10:50 PM 80.2 °F 83.7 °F 71.1 °F 73% 29.93 in 10.0 mi SSW 3.5 mph - N/A   Clear
11:10 PM 79.7 °F - 71.2 °F 75% 29.94 in 10.0 mi Calm Calm - N/A   Clear
11:30 PM 79.2 °F - 71.6 °F 78% 29.94 in 10.0 mi SSW 4.6 mph - N/A   Clear
11:50 PM 78.8 °F - 71.8 °F 79% 29.94 in 10.0 mi SSW 4.6 mph - N/A   Clear